Regional Weather Roundup
Issued by NWS Green Bay, WI

Home | Current Version | Previous Version | Graphics & Text | Print | Product List | Glossary Off
Versions: 1 2 3 4 5 6 7 8 9 10 11 12 13 14 15 16 17 18 19 20 21 22 23 24 25 26 27 28 29 30 31 32 33 34 35 36 37 38 39 40 41 42 43 44 45 46 47 48 49 50

000
ASUS43 KGRB 190711
RWRGRB

NORTH-CENTRAL AND NORTHEAST WISCONSIN REGIONAL WEATHER ROUNDUP
NATIONAL WEATHER SERVICE GREEN BAY WI
100 AM CST FRI JAN 19 2018

WIZ005-009-010>012-018-019-190800-
NORTH CENTRAL WISCONSIN

CITY           SKY/WX    TMP DP  RH WIND       PRES   REMARKS
IRONWOOD       FAIR      27  21  78 SW10      29.67F
MANITOWISH WTR FAIR      22  22 100 S3        29.67F
ARBOR VITAE    FAIR      25  22  89 SW3       29.68F
EAGLE RIVER    FAIR      20  19  98 SW5       29.67F
LAND O LAKES   FAIR      20  18  93 CALM      29.69S
RHINELANDER    FAIR      26  22  84 SW8       29.70F
PHILLIPS       FAIR      24  22  95 S5        29.69F
ANTIGO         FAIR      22  19  89 W5        29.73F
TOMAHAWK       FAIR      22  19  91 CALM      29.72S
MERRILL        FAIR      19  17  93 CALM      29.74F
$$

WIZ013-073-190800-
NORTHEAST WISCONSIN

CITY           SKY/WX    TMP DP  RH WIND       PRES   REMARKS
IRON MOUNTAIN  FAIR      20  16  84 CALM      29.69F
MARINETTE      FAIR      25  20  81 SW6       29.78F
OCONTO         FAIR      25  19  76 SW5       29.79S
$$

WIZ017-030-035>037-045-190800-
CENTRAL WISCONSIN

CITY           SKY/WX    TMP DP  RH WIND       PRES   REMARKS
MEDFORD        FAIR      23  19  85 SW7       29.72F
WAUSAU         FAIR      25  20  81 CALM      29.73F
MOSINEE        FAIR      23  19  86 SW7       29.76F
MARSHFIELD     FAIR      25  19  78 SW7       29.74F
WISC RAPIDS    FAIR      24  16  71 SW8       29.78F
STEVENS POINT  FAIR      23  18  81 SW5       29.78S
WAUPACA        FAIR      26  19  74 CALM      29.80S
SHAWANO        FAIR      26  20  77 CALM      29.77F
CLINTONVILLE   FAIR      21  18  86 SW3       29.79R
WAUTOMA        FAIR      22  17  81 CALM      29.81F
$$

WIZ038-039-048-051-190800-
FOX VALLEY

CITY           SKY/WX    TMP DP  RH WIND       PRES   REMARKS
NWS GREEN BAY  FAIR      22  16  78 S5        29.80F
APPLETON       FAIR      23  16  74 SW8       29.78F
OSHKOSH        FAIR      22  16  78 S8        29.81F
FOND DU LAC    FAIR      25  16  68 SW7       29.83R
$$

WIZ022-050-052-190800-
EAST CENTRAL WISCONSIN

CITY           SKY/WX    TMP DP  RH WIND       PRES   REMARKS
EPHRAIM        FAIR      25  19  77 SW10      29.76S
WASHINGTON ISL FAIR      24  20  86 SW10      29.76F
STURGEON BAY   FAIR      27  20  75 SW13      29.79S
MANITOWOC      FAIR      29  20  69 SW8       29.81F
SHEBOYGAN      FAIR      28  20  71 W10       29.82R
$$

LMZ563-521-522-541>543-190800-
LAKESHORE

STATION/POSITION TIME  TEMP    WIND        PRES    VSBY  WAVE
                       AIR SEA DIR/SP/G                  HT/PER
                 (UTC) (F)     (DEG/KT/KT) (MB)    (MI)  (FT/S)
SHEBOYGAN LKSHOR 0700   30     250/ 10/ 13 1010.7R
KEWAUNEE LKSHORE 0648          260/  7/ 11 1008.4F
NORTHPORT PIER   0657   27     240/ 10/ 22 1007.8F
MENOMINEE LKSHOR 0648          210/  7/  9 1008.0F
$$



USA.gov is the U.S. government's official web portal to all federal, state and local government web resources and services.